This demonstration page uses our WeatherBlox Daily Observations layout. Learn more.

Left ArrowRight Arrow

Hourly Observations for August 1, 2018

Temp ( °F °C ) Dew Point ( °F °C ) Humidity (%) Winds ( mph kmh ) Pressure ( in mb ) Visibility ( mi km ) Precip ( " mm )
12:53 am 00:53 Cloudy with Haze 79 26.1 62 16.7 56 56 Calm 29.85 1011 5 8 0.00 0.00
1:53 am 01:53 Cloudy with Haze 76 24.4 63 17.2 64 64 NW 5 7 29.85 1011 3 5 0.00 0.00
2:53 am 02:53 Hazy 78 25.6 63 17.2 60 60 NNW 5 7 29.85 1011 3 5 0.00 0.00
3:53 am 03:53 Hazy 75 23.9 63 17.2 66 66 Calm 29.85 1011 3 5 0.00 0.00
4:53 am 04:53 Hazy 74 23.3 63 17.2 69 69 NW 5 7 29.85 1011 3 5 0.00 0.00
5:53 am 05:53 Cloudy with Haze 73 22.8 62 16.7 69 69 Calm 29.85 1011 3 5 0.00 0.00
6:14 am 06:14 Mostly Cloudy with Haze 72 22.2 62 16.7 71 71 N 3 6 29.88 1012 3 4 0.00 0.00
6:30 am 06:30 Mostly Cloudy with Haze 73 22.8 62 16.7 69 69 N 3 6 29.88 1012 3 5 0.00 0.00
6:37 am 06:37 Mostly Cloudy with Haze 73 22.8 63 17.2 71 71 NNW 3 6 29.88 1012 2 3 0.00 0.00
6:53 am 06:53 Mostly Cloudy with Haze 73 22.8 62 16.7 69 69 Calm 29.86 1011 2 3 0.00 0.00
7:38 am 07:38 Mostly Cloudy with Haze 74 23.3 63 17.2 69 69 Calm 29.88 1012 2 3 0.00 0.00
7:49 am 07:49 Mostly Cloudy with Haze 75 24 63 17 65 65 Calm 29.91 1013 2 3 0.00 0.00
7:53 am 07:53 Mostly Cloudy with Haze 76 24.4 63 17.2 64 64 Calm 29.88 1012 2 3 0.00 0.00
8:00 am 08:00 Hazy 76 24.4 63 17.2 64 64 Calm 29.91 1013 2 3 0.00 0.00
8:53 am 08:53 Hazy 80 26.7 62 16.7 54 54 Calm 29.88 1012 3 4 0.00 0.00
9:53 am 09:53 Hazy 85 29.4 59 15 42 42 Calm 29.88 1012 3 4 0.00 0.00
10:35 am 10:35 Mostly Cloudy with Haze 88 31.1 57 13.9 35 35 Calm 29.88 1012 3 4 0.00 0.00
10:53 am 10:53 Cloudy with Haze 89 31.7 56 13.3 33 33 Calm 29.88 1012 3 5 0.00 0.00
11:53 am 11:53 Cloudy with Haze 91 32.8 60 15.6 35 35 SE 6 9 29.87 1011 3 5 0.00 0.00
12:53 pm 12:53 Cloudy with Haze 94 34.4 58 14.4 30 30 Calm 29.85 1011 3 5 0.00 0.00
1:28 pm 13:28 Mostly Cloudy with Haze 97 36.1 55 12.8 24 24 SSE 5 7 29.85 1011 4 6 0.00 0.00
1:53 pm 13:53 Mostly Cloudy with Haze 97 36.1 57 13.9 26 26 SSE 5 7 29.84 1010 4 6 0.00 0.00
2:53 pm 14:53 Mostly Cloudy with Haze 100 37.8 57 13.9 24 24 SSE 8 13 29.81 1010 4 6 0.00 0.00
3:53 pm 15:53 Mostly Cloudy with Haze 100 37.8 54 12.2 21 21 SSE 5 7 29.79 1009 5 8 0.00 0.00
4:53 pm 16:53 Mostly Cloudy with Haze 100 37.8 53 11.7 21 21 SSE 12 19 29.78 1008 5 8 0.00 0.00
5:53 pm 17:53 Cloudy with Haze 99 37.2 48 8.9 18 18 SSE 14 22 29.77 1008 5 8 0.00 0.00
6:53 pm 18:53 Cloudy with Haze 96 35.6 48 8.9 19 19 SSE 10 17 29.77 1008 6 10 0.00 0.00
7:53 pm 19:53 Cloudy with Haze 90 32.2 49 9.4 24 24 SE 9 15 29.78 1008 4 6 0.00 0.00
8:53 pm 20:53 Cloudy with Haze 86 30 56 13.3 36 36 ESE 6 9 29.79 1009 6 10 0.00 0.00
9:53 pm 21:53 Cloudy with Smoke 85 29.4 60 15.6 43 43 Calm 29.82 1010 7 11 0.00 0.00
10:53 pm 22:53 Cloudy with Haze 81 27.2 59 15 47 47 Calm 29.83 1010 6 10 0.00 0.00
11:53 pm 23:53 Cloudy with Smoke 80 26.7 62 16.7 54 54 NNE 5 7 29.84 1010 7 11 0.00 0.00

Powered by AerisWeather